Location: Newark
(34.0131°N, 4.3314°W)
Time: 02:02:17
(UTC+00:00)

Explorer 11/Cluster Stage 4 - Pass Details

Date: 28 October 2019
Orbit: 467 x 1259 km, 28.8° (Epoch: 14 November)

Event Time Altitude Azimuth Distance (km) Brightness Sun altitude
Rises 05:21:49 0° 235° (SW) 3,405 - -15.3°
Exits shadow 05:24:26 - 227° (SW) 2,482 8.8 -14.8°
Reaches altitude 10° 05:24:55 10° 224° (SW) 2,316 8.6 -14.7°
Maximum altitude 05:29:27 28° 167° (SSE) 1,256 7.8 -13.7°
Drops below altitude 10° 05:33:16 10° 108° (ESE) 1,919 10.0 -13.0°
Sets 05:35:35 0° 96° (E) 2,719 11.5 -12.5°
